World > North America > United States > North Carolina

Garner, North Carolina Regional Weather

Lat: 35.69N, Lon: 78.63W
Wx Zone: NCZ041
Warning NWS WEATHER ALERT - (More Info. Click Here) Warning
Feedback

Garner, NC Regional Weather

Expires:201910211500;;050884
ASUS42 KRAH 211410
RWRRAH
NORTH CAROLINA WEATHER ROUNDUP
NATIONAL WEATHER SERVICE RALEIGH NC
1000 AM EDT MON OCT 21 2019

NOTE: "FAIR" INDICATES FEW OR NO CLOUDS BELOW 12,000 FEET WITH NO
SIGNIFICANT WEATHER AND/OR OBSTRUCTIONS TO VISIBILITY.


NCZ021-022-025-041-071-084-088-211500-
CENTRAL NORTH CAROLINA
  
CITY           SKY/WX    TMP DP  RH WIND       PRES   REMARKS
CHARLOTTE      CLOUDY    64  57  78 SE8       30.08R                  
GREENSBORO     FOG       57  57 100 CALM      30.08R VSB 1/4          
WINSTON-SALEM  CLOUDY    60  58  92 CALM      30.10R                  
RALEIGH-DURHAM FAIR      60  56  86 E8        30.09R                  
FORT BRAGG     PTSUNNY   61  59  94 E7        30.08S                  
FAYETTEVILLE   PTSUNNY   60  56  86 N7        30.08R                  
BURLINGTON     FAIR      63  56  78 CALM      30.08S                  
ROXBORO        FAIR      54  52  94 NE6       30.10S                  
HENDERSON      FAIR      55  52  89 CALM      30.09R                  
LOUISBURG      FAIR      55  54  94 NE6       30.12R                  
LAURINBURG     FAIR      63  58  83 E6        30.08S                  
$$
 

SKY/WX - Weather  TMP - Temperature  DP - Dew Point  RH - Relative Humidity
WIND - Wind Direction/Speed PRES - Barometric Pressure VSB - Visibility
WCI - Wind Chill Index E13G22 Wind - East Wind 13 mph/Gusts of 22 mph